C/2014 R3 ( PanSTARRS )

Japanese version
Home page
Updated on April 13, 2018

---------------------------------------------------------------------

* Profile

Discovery Date September 6, 2014
Magnitude 20.1 mag
Discoverer Pan-STARRS 1 telescope (Haleakala)

* Pictures

* Orbital Elements

Epoch 2016 July 31.0 TT = JDT 2457600.5
T 2016 Aug. 7.89573 TT                                  MPCW
q   7.2753889            (2000.0)            P               Q
z  +0.0000150      Peri.  113.40107     -0.36316637     -0.82311703
 +/-0.0000005      Node   334.11214     -0.21699450     +0.53039170
e   0.9998911      Incl.   90.83748     +0.90610351     -0.20288669
From 651 observations 2014 Sept. 6-2018 Mar. 25, mean residual 0".4.

* Magnitudes Graph

        m1 = -16   + 5 log d + 33   log r(t - 100)  [   ,100]  (             - 2016 Nov. 15)
        m1 =   3.8 + 5 log d + 10.0 log r           [100,   ]  (2016 Nov. 15 -             )

---------------------------------------------------------------------

The orbital elements are published on M.P.E.C. 2018-F152.
The magnitudes graphs are made with Comet for Windows.

---------------------------------------------------------------------

Copyright(C) Seiichi Yoshida (comet@aerith.net). All rights reserved.